Theta_e
313 312 312 312 312 313 314 314 314 315 316 317 317 317 317 317 317 308 299 309 313 328 332 326 322 322 323 318 320 317 308 303 304 305 308 314 313 315 317 317 317 318 319 321 321
314 313 313 313 312 311 311 312 313 314 314 316 317 316 316 317 310 304 313 323 329 333 320 317 313 318 315 316 318 314 307 306 311 311 310 312 313 314 314 315 316 318 321 320 320
313 314 314 314 314 313 313 312 311 312 313 313 314 315 315 315 300 299 328 326 326 329 315 316 316 316 312 315 315 314 308 312 312 313 313 313 313 316 313 311 315 315 319 323 323
312 313 313 312 313 313 313 313 313 312 311 312 313 314 315 309 293 306 324 322 335 326 311 308 313 312 309 309 315 309 313 314 314 315 314 312 315 313 315 315 319 320 322 322 321
312 312 312 312 312 312 312 312 313 312 312 311 312 312 309 300 298 306 317 314 314 320 310 306 309 308 304 308 311 309 311 314 316 316 315 315 312 312 312 317 319 320 320 319 319
311 311 311 311 311 311 311 312 312 311 311 311 311 312 303 291 308 310 311 309 305 315 310 307 306 311 307 307 307 309 311 311 313 313 313 310 309 310 311 316 315 315 315 316 318
310 310 311 311 311 310 310 311 312 311 312 312 312 306 299 296 309 310 309 307 306 304 302 309 311 307 307 303 308 306 303 306 306 308 306 306 302 303 309 312 311 312 314 316 319
311 311 311 311 311 310 310 311 311 311 312 313 313 305 295 306 310 307 309 308 309 309 306 305 310 308 305 306 303 301 301 297 304 304 305 304 298 306 311 310 310 312 314 315 318
311 311 310 310 311 310 310 311 311 311 311 311 306 300 293 307 302 308 309 304 307 308 306 305 305 304 304 300 298 299 295 296 298 303 303 304 300 306 310 309 309 311 313 314 316
311 311 310 310 310 310 310 309 309 308 307 307 304 295 297 296 303 306 309 307 303 303 300 300 301 298 297 297 291 293 293 296 296 301 301 300 300 305 308 309 309 311 313 314 315
310 310 310 310 309 309 307 302 300 297 299 295 295 295 297 301 305 302 306 305 303 299 294 297 294 293 296 297 298 299 297 297 299 302 300 301 302 305 308 309 309 310 312 314 316
310 310 310 310 309 308 304 296 296 297 290 298 297 298 300 302 295 299 305 298 296 292 296 294 291 297 300 299 296 296 295 295 299 301 301 302 301 305 307 307 309 310 312 314 317
310 310 310 310 310 303 299 298 304 304 291 294 297 296 298 300 295 296 301 298 294 292 293 292 295 298 297 297 295 295 294 295 296 300 302 301 299 302 306 308 309 311 314 315 316
310 310 310 309 301 301 298 303 305 304 286 288 292 296 299 299 293 301 301 299 295 292 293 294 298 296 294 295 297 293 299 298 297 295 293 300 292 300 303 304 307 310 313 315 315
309 309 309 308 302 297 300 305 305 299 273 289 294 304 300 295 296 298 302 298 293 293 294 291 293 293 293 295 298 296 300 298 297 295 296 296 293 297 303 301 305 308 312 315 314
309 308 308 303 303 302 305 304 300 284 273 286 292 291 292 294 294 297 297 299 300 296 295 295 298 297 296 298 300 301 299 299 299 297 290 296 294 294 298 301 304 308 312 314 315
308 307 306 304 297 303 304 299 282 276 287 285 287 290 290 289 290 292 292 290 290 288 289 293 293 297 298 295 299 300 296 289 287 288 289 296 293 295 302 305 307 309 313 315 316
307 305 303 303 304 304 299 289 275 281 283 290 288 288 285 288 287 288 289 290 292 293 292 288 286 294 297 296 295 297 297 291 284 285 289 295 289 294 305 308 309 312 313 315 316
304 302 301 302 303 303 293 279 279 283 287 285 287 284 284 287 286 286 287 290 292 292 287 290 290 298 297 298 298 296 293 299 293 293 291 293 296 303 307 308 309 310 311 314 316
298 298 298 305 305 300 288 281 283 289 289 288 281 285 281 283 284 284 284 289 290 294 296 293 289 296 297 299 300 298 300 290 293 285 284 290 293 295 303 306 309 310 312 314 316
298 292 298 304 303 292 283 283 286 291 290 286 284 283 283 282 285 284 284 288 291 292 295 294 293 293 296 293 293 294 294 295 296 293 287 286 292 307 307 309 311 313 314 314 315
295 288 299 304 289 287 285 286 290 289 291 289 289 287 285 285 285 285 284 287 293 293 289 294 293 290 292 298 299 297 296 296 290 289 292 293 292 306 309 309 311 313 313 315 317
291 290 300 300 283 284 288 287 289 288 289 288 287 289 290 286 283 287 288 293 294 291 288 293 291 288 290 294 298 295 296 297 297 297 291 289 293 305 307 308 310 313 313 314 316
292 285 293 294 292 286 284 285 286 291 290 290 289 290 288 286 289 286 287 291 294 293 295 295 290 289 288 291 295 292 294 296 296 291 291 292 295 302 305 308 311 312 314 315 316
291 288 291 283 286 286 286 285 285 284 290 290 287 287 287 283 285 285 288 291 293 296 294 292 285 288 290 291 293 294 294 294 293 295 291 294 295 301 304 308 311 313 314 315 315
291 290 292 288 288 286 285 285 284 286 287 285 286 288 288 285 286 284 288 289 289 292 292 293 286 289 289 292 293 292 295 295 295 295 296 297 298 304 308 310 311 312 313 314 315
295 297 292 288 286 285 285 285 286 288 289 290 289 287 287 289 292 293 293 292 292 291 290 290 289 287 287 290 292 289 295 296 296 297 297 294 299 304 305 309 312 314 314 315 317
Wind_Speed
13 13 13 14 15 15 14 14 15 15 15 15 15 16 19 21 22 4 11 8 6 3 6 8 7 7 7 7 5 2 6 11 9 7 7 1 4 2 1 8 5 7 9 7 4
13 13 13 12 12 14 15 15 15 15 16 15 14 15 16 19 8 11 10 11 13 8 11 13 10 13 7 8 8 9 11 15 11 10 9 5 8 9 6 13 21 13 13 7 5
17 17 16 14 13 12 13 15 16 16 14 15 16 16 15 16 7 5 8 13 18 14 16 11 10 12 10 6 11 11 19 21 17 16 5 14 15 10 13 18 22 15 19 21 15
16 16 16 18 18 17 14 13 14 15 15 14 13 14 15 5 10 6 17 12 11 13 16 15 13 11 11 16 17 14 17 23 21 16 10 17 12 17 16 27 26 21 18 20 19
17 17 17 17 18 18 18 18 16 15 14 14 13 12 6 4 10 4 16 13 5 7 15 19 21 19 17 16 18 15 20 17 19 17 17 18 19 18 24 28 24 20 19 19 18
17 18 18 18 19 20 19 17 17 17 16 14 12 11 4 14 8 9 10 11 4 5 8 14 8 14 14 13 20 8 22 23 17 16 19 19 23 10 21 26 21 22 24 23 21
17 17 18 18 18 19 19 19 18 20 19 16 11 8 14 24 9 12 19 4 3 2 8 11 14 8 4 6 13 10 15 13 12 17 13 15 19 17 25 20 18 23 22 22 19
17 17 18 19 19 20 21 21 21 24 22 17 10 7 11 9 11 18 16 11 13 16 5 8 12 14 6 1 1 9 6 15 12 17 12 10 19 13 20 14 17 18 17 18 19
18 17 18 19 19 20 21 21 26 18 10 5 5 6 13 7 8 13 16 14 6 13 11 6 8 10 6 13 10 9 12 15 11 8 6 14 18 15 11 10 17 20 20 18 19
19 18 18 20 19 19 19 23 15 1 5 6 2 5 7 3 4 10 7 16 10 10 9 11 9 11 15 16 24 18 12 10 13 9 11 16 22 15 19 13 20 20 19 18 18
20 19 17 18 19 18 15 5 3 4 2 7 7 8 18 10 10 6 3 6 12 16 18 20 13 28 29 29 14 17 21 20 14 9 7 13 18 15 19 19 19 19 19 18 19
21 21 20 18 19 14 4 3 5 3 12 15 22 23 24 12 11 14 6 10 12 19 21 12 30 31 25 19 23 24 22 23 14 12 10 15 22 18 18 21 16 18 20 18 16
19 20 21 19 18 2 6 3 4 7 6 14 10 10 10 9 15 22 13 9 12 21 30 26 38 22 22 26 25 28 29 23 19 4 9 9 19 20 22 14 15 19 17 16 14
19 19 17 16 1 6 6 3 7 4 5 7 3 5 6 6 7 16 19 12 12 22 24 23 25 21 22 28 23 28 22 23 18 9 14 2 19 15 21 21 18 18 14 14 8
18 18 16 11 7 4 4 6 10 3 6 3 4 2 1 5 15 2 17 19 21 12 17 19 17 23 27 28 27 20 14 19 16 7 12 18 15 15 7 17 22 19 14 6 3
20 20 16 5 2 8 5 8 2 4 8 2 3 10 9 8 19 8 2 20 15 19 20 19 11 26 26 16 22 15 11 11 9 11 19 19 14 22 14 21 17 15 11 2 3
23 22 12 4 3 0 5 3 3 6 6 2 6 12 8 13 10 18 12 14 15 19 18 16 17 5 14 22 21 20 16 7 8 10 13 11 14 19 10 18 17 16 8 5 7
22 16 3 3 1 3 1 2 6 1 6 11 8 10 4 9 8 21 18 8 22 12 10 15 12 22 17 16 18 28 24 11 11 10 9 15 12 10 19 26 19 16 6 6 9
14 3 2 3 4 3 2 3 3 2 6 10 13 7 4 8 7 6 13 12 4 20 9 12 16 13 19 14 25 24 20 17 13 1 4 5 6 13 16 12 12 15 9 9 11
3 4 3 8 4 2 1 4 4 6 10 6 6 4 5 11 8 4 5 6 11 14 12 7 7 13 17 20 25 19 23 13 11 14 9 5 5 10 9 14 10 9 10 10 12
2 3 2 5 1 1 2 3 6 9 9 5 4 7 8 12 8 5 6 7 6 13 15 11 7 12 19 21 23 12 23 8 10 6 6 3 5 8 16 15 14 11 11 14 16
3 3 3 2 1 1 2 3 6 7 4 5 6 9 9 6 5 5 7 7 4 9 10 6 8 5 23 11 19 21 19 21 11 9 8 1 4 1 9 1 2 8 11 14 15
5 3 2 2 4 4 7 6 5 5 7 5 5 3 3 5 5 6 3 3 7 3 6 8 7 10 10 7 13 28 20 21 6 5 14 10 2 2 2 2 4 7 12 13 15
3 5 2 3 1 7 9 5 7 9 6 8 10 8 6 5 6 6 5 5 6 5 1 8 5 10 9 6 1 22 24 21 18 12 10 16 11 15 8 6 2 6 13 13 15
3 1 1 4 3 9 8 5 9 9 6 5 3 5 10 5 12 1 6 10 4 6 2 3 4 5 14 12 7 3 21 24 24 19 15 10 22 22 14 10 0 6 13 15 16
3 3 2 5 6 10 3 2 8 9 7 8 6 13 13 9 12 16 14 4 2 3 1 2 3 8 8 7 8 8 6 18 23 23 19 11 17 17 11 2 5 10 14 17 17
0 3 4 5 3 4 3 4 9 15 9 7 13 17 15 11 6 10 13 13 14 11 4 3 2 5 13 4 5 10 14 11 13 21 20 18 16 6 8 9 8 13 16 19 19
Wind_Direction
360 356 348 341 336 340 340 334 331 330 329 324 325 331 335 335 328 314 256 218 177 241 161 132 186 186 160 174 150 179 223 241 242 225 252 163 244 130 335 288 276 252 265 292 312
347 348 346 343 342 337 332 330 333 330 329 329 330 331 333 330 319 267 241 227 219 166 193 177 193 175 178 204 170 200 227 228 225 235 271 293 299 321 282 294 285 270 274 265 273
349 348 345 341 335 334 332 330 327 326 325 329 328 328 331 324 269 242 3 244 260 204 216 215 215 191 195 202 191 200 231 239 244 235 243 284 285 296 292 286 279 293 298 304 295
347 345 343 342 338 335 326 318 319 320 318 322 319 323 326 288 247 142 28 4 13 199 212 212 197 198 205 207 217 224 230 243 251 261 265 264 301 279 281 271 279 291 282 286 289
348 344 341 337 335 332 328 326 316 312 312 312 312 322 331 242 242 347 350 7 20 132 201 202 198 203 211 211 227 234 238 244 251 266 265 276 266 270 284 278 280 283 279 269 270
342 341 340 336 332 329 325 318 313 314 306 303 301 306 275 250 240 311 343 344 288 179 197 210 217 226 251 228 214 225 231 243 252 263 268 269 267 260 261 266 283 280 273 272 272
339 338 335 333 330 327 322 315 317 304 298 292 284 279 256 246 278 289 298 277 325 356 217 224 238 251 228 221 235 241 246 236 230 241 252 273 268 246 258 275 278 276 281 275 272
337 335 334 331 329 326 319 315 310 304 295 283 263 260 257 244 263 270 263 281 237 237 249 261 229 250 252 336 143 209 215 232 221 227 240 207 268 271 271 282 278 281 283 282 280
333 331 333 329 326 323 318 315 307 305 300 243 168 212 265 284 256 254 242 247 236 211 211 256 214 222 220 236 240 213 233 216 237 213 230 206 278 265 266 280 285 286 286 285 284
334 335 332 329 327 324 318 314 300 204 109 137 205 225 240 278 247 291 241 224 222 179 175 205 203 209 212 206 219 214 225 227 234 223 232 245 255 270 282 295 280 288 286 283 274
331 332 331 330 328 327 324 331 257 197 295 250 239 252 285 262 273 245 238 172 211 194 193 187 198 219 210 214 235 259 237 238 227 225 254 259 275 280 288 291 281 282 280 274 270
327 329 327 324 325 334 343 30 74 325 292 261 249 242 252 266 300 260 192 199 192 202 188 173 222 221 222 210 222 235 240 238 240 248 240 274 282 288 279 272 277 286 284 276 283
322 323 321 323 318 71 315 263 9 342 261 279 235 248 241 227 233 269 196 209 214 205 194 195 224 215 212 216 216 224 230 234 244 207 242 282 280 278 276 273 293 283 268 272 269
326 324 325 332 311 323 298 222 328 305 286 269 215 241 197 220 238 236 215 214 217 211 204 228 225 203 206 219 211 233 227 242 240 233 251 226 282 274 287 286 283 283 280 276 285
329 325 322 327 300 286 310 324 321 210 290 72 123 166 143 206 319 255 210 208 233 188 191 214 202 199 205 207 201 228 214 222 226 241 276 256 268 279 263 279 277 275 268 276 202
328 328 326 301 210 272 302 314 231 213 244 307 86 347 347 15 345 294 254 233 220 244 223 228 213 199 212 199 200 200 195 174 195 232 242 244 248 268 252 254 263 266 256 91 106
327 324 322 300 305 129 350 295 193 237 329 81 355 329 349 4 347 353 318 192 212 202 218 214 221 196 196 204 193 191 190 182 206 209 247 227 219 250 255 249 246 264 262 136 144
327 326 334 266 339 344 215 169 228 283 272 340 337 326 334 42 326 335 346 317 210 244 221 205 193 210 191 196 187 190 181 197 212 223 224 211 225 250 227 239 235 239 260 152 160
330 342 5 346 278 186 258 218 267 302 356 339 323 312 20 15 325 9 349 327 49 232 277 220 224 183 186 183 185 197 207 218 231 37 237 198 234 271 244 248 224 230 216 184 169
343 325 343 357 124 160 254 281 273 320 327 303 301 354 335 349 326 343 324 357 330 351 345 281 236 206 185 189 193 191 179 186 210 216 226 224 233 240 229 237 219 212 199 169 164
14 347 31 333 215 169 248 277 297 309 316 294 283 300 306 306 298 311 218 333 14 331 320 267 279 175 175 198 185 177 188 196 205 230 209 234 223 219 229 216 213 212 178 163 166
346 327 16 15 25 337 305 287 304 299 322 271 268 266 262 285 274 259 269 168 78 2 331 306 291 225 203 188 192 199 191 193 199 181 217 263 251 346 248 249 195 146 151 162 164
341 303 6 321 17 341 324 293 273 296 320 317 297 284 335 302 305 285 324 138 151 107 348 345 236 220 152 178 202 201 199 198 197 170 200 201 214 111 230 207 202 136 142 154 153
346 349 320 36 28 341 342 327 328 324 316 333 284 301 319 302 270 279 300 291 210 138 284 320 267 264 213 191 275 207 205 199 203 213 186 214 227 258 282 294 148 152 151 157 165
5 44 31 316 334 332 319 293 318 343 340 347 315 5 351 303 310 295 317 324 264 119 104 27 276 303 286 281 292 303 210 205 209 214 220 200 222 249 271 307 355 166 154 160 168
336 333 268 273 282 317 319 300 318 332 308 317 296 327 325 289 286 301 310 334 359 352 271 168 327 328 260 230 255 261 239 223 213 210 217 218 240 235 236 197 173 160 177 176 178
285 260 275 272 294 316 300 319 311 319 292 251 314 309 299 298 298 286 279 274 268 288 294 284 6 321 217 9 296 257 230 210 219 220 218 230 229 251 274 252 206 179 201 186 181